Russell, KS

9:03 PM CST on January 20, 2017 (GMT -0600)
Russell Municipal

Weather History for KRSL - December, 2011

Change the Weather History Date:

Sunday, December 25, 2011

  Actual Average Record
Temperature  
Mean Temperature 24 °F -  
Max Temperature 37 °F 38 °F 75 °F (1950)
Min Temperature 10 °F 17 °F -8 °F (1983)
Degree Days  
Heating Degree Days 42    
Moisture  
Dew Point 19 °F    
Average Humidity 80    
Maximum Humidity 96    
Minimum Humidity 65    
Precipitation  
Precipitation 0.00 in - - ()
Sea Level Pressure  
Sea Level Pressure 30.46 in    
Wind  
Wind Speed 8 mph (WNW)    
Max Wind Speed 13 mph    
Max Gust Speed -    
Visibility 10 miles    
Events      
Averages and records for this station are not official NWS values.
T = Trace of Precipitation, MM = Missing Value Source: NWS Daily Summary

Daily Weather History Graph

Daily Weather History Graph

Search for Another Location

Airport or City:

Trip Planner

Search our weather history database for the weather conditions in past years. The results will help you decide how hot, cold, wet, or windy it might be!

Date:

Astronomy

Dec. 25, 2011 Rise Set
Actual Time 7:51 AM CST 5:18 PM CST
Civil Twilight 7:21 AM CST 5:48 PM CST
Nautical Twilight 6:48 AM CST 6:22 PM CST
Astronomical Twilight 6:15 AM CST 6:54 PM CST
Moon 8:31 AM CST (12/25) 6:40 PM CST (12/25)
Length of Visible Light 10h 26m
Length of Day
9h 26m
New Moon, 1% of the Moon is Illuminated
Dec 25
New Moon
Jan 1
First Quarter
Jan 9
Full
Jan 16
Last Quarter
Jan 23
New

Hourly Weather History & Observations

Time (CST) Temp. Windchill Dew Point Humidity Pressure Visibility Wind Dir Wind Speed Gust Speed Precip Events Conditions
12:53 AM 15.1 °F 3.3 °F 10.9 °F 84% 30.46 in 10.0 mi WSW 9.2 mph - N/A   Clear
1:53 AM 12.9 °F 0.7 °F 10.0 °F 88% 30.45 in 10.0 mi WSW 9.2 mph - N/A   Clear
2:53 AM 12.0 °F 1.5 °F 9.0 °F 88% 30.48 in 10.0 mi WSW 6.9 mph - N/A   Clear
3:53 AM 10.9 °F 0.2 °F 8.1 °F 88% 30.48 in 10.0 mi SW 6.9 mph - N/A   Clear
4:53 AM 12.0 °F 1.5 °F 9.0 °F 88% 30.47 in 10.0 mi NW 6.9 mph - N/A   Clear
7:53 AM 21.0 °F 8.6 °F 15.1 °F 78% 30.51 in 10.0 mi NW 12.7 mph - N/A   Clear
8:53 AM 24.1 °F 12.5 °F 17.1 °F 75% 30.53 in 10.0 mi NW 12.7 mph - N/A   Clear
9:53 AM 27.0 °F 18.0 °F 19.0 °F 72% 30.56 in 10.0 mi NW 9.2 mph - N/A   Clear
10:53 AM 30.0 °F 22.4 °F 21.9 °F 72% 30.57 in 10.0 mi NW 8.1 mph - N/A   Clear
11:53 AM 33.1 °F 27.7 °F 24.1 °F 70% 30.54 in 10.0 mi NW 5.8 mph - N/A   Clear
12:53 PM 35.1 °F 27.4 °F 26.1 °F 70% 30.51 in 10.0 mi NNW 10.4 mph - N/A   Clear
1:53 PM 36.0 °F 29.0 °F 27.0 °F 70% 30.49 in 10.0 mi North 9.2 mph - N/A   Clear
2:53 PM 37.4 °F 31.4 °F 26.6 °F 65% 30.38 in 10.0 mi North 8.1 mph - N/A   Clear
3:53 PM 36.0 °F - 27.0 °F 70% 30.46 in 10.0 mi Calm Calm - N/A   Clear
4:53 PM 35.6 °F - 26.6 °F 70% 30.38 in 10.0 mi Calm Calm - N/A   Clear
5:53 PM 35.1 °F 32.2 °F 25.0 °F 67% 30.43 in 10.0 mi NNE 3.5 mph - N/A   Clear
6:53 PM 27.0 °F 23.0 °F 23.0 °F 85% 30.45 in 10.0 mi SW 3.5 mph - N/A   Clear
7:53 PM 25.0 °F 16.3 °F 21.9 °F 88% 30.45 in 10.0 mi SW 8.1 mph - N/A   Clear
8:53 PM 21.9 °F 14.5 °F 19.9 °F 92% 30.43 in 10.0 mi SW 5.8 mph - N/A   Clear
9:53 PM 21.0 °F 16.2 °F 19.9 °F 96% 30.41 in 10.0 mi WSW 3.5 mph - N/A   Clear
10:53 PM 19.4 °F 10.4 °F 17.6 °F 93% 30.32 in 10.0 mi SW 6.9 mph - N/A   Clear
11:53 PM 19.0 °F 11.1 °F 17.1 °F 92% 30.37 in 10.0 mi WSW 5.8 mph - N/A   Clear